Погода в Еланке

Россия / Новосибирская область     55°37′29″N   75°17′41″E
темп.,
°C
ветер,
м/с
пор.,
м/с
влажн.,
%
обл.,
%
осадки,
мм/ч
давл.,
гПа
погр.,
м
19 июня, сб
сб1901:00+7ссз71396100 6.6 1003692
04:00+6ссз81392100 0.0 1004740
07:00+6ссз71391100 0.0 1005918
10:00+7ссз71284100 0.1 10071028
13:00+11ссз81163100 0.1 10081474
16:00+12ссз7115395 0.0 10081813
19:00+12ссз5864100 0.3 10091240
22:00+10сз347279 0.1 100979
20 июня, вс
вс2001:00+7з337664 0.1 101035
04:00+6з357732 0.0 101069
07:00+8зюз37760 0.0 1009159
10:00+15зюз565812 0.0 1008601
13:00+17юз7848100 0.0 10062229
16:00+17ююз71053100 0.0 10032188
19:00+13ююз61282100 0.3 1001777
22:00+10ю71396100 8.9 998731
21 июня, пн
пн2101:00+10зсз4898100 14.8 997473
04:00+6сз61195100 2.3 998404
07:00+7зсз51096100 2.3 999472
10:00+7сз5898100 1.9 1001424
13:00+9св61095100 3.8 1004602
16:00+13св4882100 0.9 1006763
19:00+13св368095 2.2 1007664
22:00+11с338784 0.6 100859
22 июня, вт
вт2201:00+9ссз5129620 0.6 1009322
04:00+8ссз5129640 0.0 1010272
07:00+8ссз41093100 0.0 1011270
10:00+12ссз5777100 0.0 1012578
13:00+15ссз566550 0.4 10131364
16:00+16ссз4565100 1.3 10131307
19:00+15ссз4475100 2.4 1013934
22:00+11ссз358743 1.6 1013101
23 июня, ср
ср2301:00+8с229071 1.6 101320
04:00+8ссв239180 0.0 101329
07:00+9ссв369292 0.0 1014180
10:00+13с337839 0.3 1014339
13:00+15с5572100 2.1 10141051
16:00+16ссв5665100 1.2 10141287
19:00+16с2470100 2.1 1014568
22:00+11с3583100 0.6 101485